N4DCI Weather Reports


time (UTC)temp
C
wind
direction
speed
KPH
gust
KPH
rain 1hr
cm
rain 24hr
cm
rain mn
cm
humidity
%
barometer
mb
20260505111504 6 183 0.0 0.0 0.00 0.00 0.00 85 1018.0
20260505101500 7 183 0.0 3.2 0.00 0.00 0.00 82 1017.9
20260505094500 8 184 0.0 1.6 0.00 0.00 0.00 81 1017.6
20260505093005 8 184 0.0 0.0 0.00 0.00 0.00 82 1017.8
20260505091500 8 184 0.0 0.0 0.00 0.00 0.00 81 1017.8
20260505090007 8 184 0.0 0.0 0.00 0.00 0.00 81 1017.6
20260505084504 8 184 0.0 1.6 0.00 0.00 0.00 81 1017.4
20260505083005 8 184 0.0 1.6 0.00 0.00 0.00 82 1017.2
20260505081500 8 185 0.0 3.2 0.00 0.00 0.00 82 1017.0
20260505080002 8 192 0.0 1.6 0.00 0.00 0.00 82 1016.9
20260505074506 8 193 0.0 4.8 0.00 0.00 0.00 82 1016.9
20260505073005 8 161 0.0 1.6 0.00 0.00 0.00 82 1016.9
20260505071505 8 161 0.0 3.2 0.00 0.00 0.00 81 1017.1
20260505070006 8 162 1.6 3.2 0.00 0.00 0.00 81 1017.1
20260505064504 9 162 0.0 3.2 0.00 0.00 0.00 81 1017.3
20260505063000 9 162 0.0 0.0 0.00 0.00 0.00 79 1017.4
20260505061500 10 162 1.6 3.2 0.00 0.00 0.00 78 1017.5
20260505060002 10 168 0.0 3.2 0.00 0.00 0.00 78 1017.6
20260505054459 10 101 0.0 3.2 0.00 0.00 0.00 78 1017.6
20260505052959 10 101 0.0 3.2 0.00 0.00 0.00 77 1017.6
20260505051505 11 101 0.0 3.2 0.00 0.00 0.00 75 1017.7
20260505041505 12 101 0.0 3.2 0.00 0.00 0.00 69 1017.5
20260505034505 10 35 0.0 3.2 0.00 0.00 0.00 76 1017.7
20260505033004 11 35 0.0 0.0 0.00 0.00 0.00 74 1017.9
20260505030006 11 35 0.0 0.0 0.00 0.00 0.00 71 1017.9
20260505024505 12 35 0.0 3.2 0.00 0.00 0.00 70 1017.9
20260505023005 12 35 0.0 0.0 0.00 0.00 0.00 67 1017.9
20260505021505 13 35 0.0 0.0 0.00 0.00 0.00 67 1017.9
20260505020004 13 35 0.0 0.0 0.00 0.00 0.00 65 1017.7
20260505014504 13 35 0.0 0.0 0.00 0.00 0.00 63 1017.5
20260505013004 15 35 0.0 0.0 0.00 0.00 0.00 60 1017.4
20260505010006 16 35 0.0 0.0 0.00 0.00 0.00 54 1017.1
20260505004505 17 35 0.0 0.0 0.00 0.00 0.00 50 1017.0
20260505003005 18 35 0.0 6.4 0.00 0.00 0.00 48 1016.9
20260505001505 18 355 1.6 9.7 0.00 0.00 0.00 46 1016.8
20260505000005 18 331 1.6 9.7 0.00 0.00 0.00 45 1016.8
20260504234504 19 5 4.8 16.1 0.00 0.00 0.00 45 1016.6
20260504233004 20 13 4.8 17.7 0.00 0.00 0.00 46 1016.5
20260504231505 20 355 6.4 16.1 0.00 0.00 0.00 45 1016.4
20260504230005 20 16 4.8 19.3 0.00 0.00 0.00 43 1016.3
20260504223005 21 340 6.4 17.7 0.00 0.00 0.00 41 1016.3
20260504221504 21 83 3.2 19.3 0.00 0.00 0.00 40 1016.3
20260504220006 22 24 6.4 17.7 0.00 0.00 0.00 39 1016.3
20260504214505 22 78 4.8 11.3 0.00 0.00 0.00 37 1016.2
20260504213005 22 63 6.4 16.1 0.00 0.00 0.00 37 1016.2
20260504211504 23 69 8.0 19.3 0.00 0.00 0.00 37 1016.2
20260504204504 22 64 3.2 14.5 0.00 0.00 0.00 33 1016.5
20260504201504 21 30 8.0 16.1 0.00 0.00 0.00 33 1016.8
20260504200004 21 360 4.8 9.7 0.00 0.00 0.00 34 1016.9
20260504194501 21 44 6.4 17.7 0.00 0.00 0.00 32 1017.2
20260504193004 22 93 4.8 14.5 0.00 0.00 0.00 35 1017.3
20260504191504 22 92 9.7 17.7 0.00 0.00 0.00 32 1017.4
20260504190005 22 264 1.6 16.1 0.00 0.00 0.00 32 1017.5
20260504184501 23 275 4.8 11.3 0.00 0.00 0.00 29 1017.6
20260504183004 23 82 1.6 6.4 0.00 0.00 0.00 32 1017.6
20260504181505 23 5 3.2 8.0 0.00 0.00 0.00 29 1017.7
20260504180005 22 204 1.6 9.7 0.00 0.00 0.00 30 1017.9
20260504174505 21 59 4.8 6.4 0.00 0.00 0.00 30 1018.2
20260504173005 21 98 4.8 11.3 0.00 0.00 0.00 29 1018.5
20260504171504 22 19 1.6 12.9 0.00 0.00 0.00 33 1018.5